Powrót do katalogu

SL-12 R/B(2)

AktywnyHEO
NORAD 11926·ROCKET BODY·🇷🇺 Russia

Wystrzelony Dec 19, 1978 z Baikonur Cosmodrome

Loading…

Następne Przeloty (najbliższe 24 godziny)

TLE

ŚwieżeSource: Space-Track

Epoka: Sep 14, 2026, 19:05 UTC

1 11926U 78118C   26257.79564103 -.00000015  00000-0  00000-0 0  9998
2 11926  12.7064 145.4363 2985560  15.4442 136.1368  1.01602453172484

Śledź SL-12 R/B(2) w czasie rzeczywistym z AllMySat

Download on the App Store